User: anonymous   Login
Location: Caltech
(34.1382°N, 118.1253°W)
Time: 14:11:40
(UTC-08:00)
Language:

Iridium 14 - Orbit

View from above orbital plane
View from above orbital plane
View from above satellite
View from above satellite

Ground track
Ground track

The orbit data is extracted from the following two-line orbital elements,

1 25777U 99032A   17055.54377648 -.00000033  00000-0 -18785-4 0  9994
2 25777  86.3929 271.0263 0002031  79.2373 280.9052 14.34217490938534
Epoch (UTC): 24 February 2017 13:03:02
Eccentricity: 0.0002031
inclination: 86.3929°
perigee height: 776 km
apogee height: 779 km
right ascension of ascending node: 271.0263°
argument of perigee: 79.2373°
revolutions per day: 14.34217490
mean anomaly at epoch: 280.9052°
orbit number at epoch: 93853

The dashed part of the orbit path shows where the satellite is in the earth's shadow,  

DLR